Regional Weather Roundup
Issued by NWS

Home | Current Version | Previous Version | Graphics & Text | Print | Product List | Glossary On
Versions: 1 2 3 4 5 6 7 8 9 10 11 12 13 14 15 16 17 18 19 20 21 22 23 24 25 26 27 28 29 30 31 32 33 34 35 36 37 38 39 40 41 42 43 44 45 46 47 48 49 50
000
ASUS43 KIND 241709
RWRIN

WEATHER ROUNDUP FOR INDIANA
NATIONAL WEATHER SERVICE INDIANAPOLIS IN
100 PM EDT SUN SEP 24 2017

NOTE: "FAIR" INDICATES FEW OR NO CLOUDS BELOW 12,000 FEET WITH NO
SIGNIFICANT WEATHER AND/OR OBSTRUCTIONS TO VISIBILITY.

* - STATION DOES NOT REPORT WEATHER SUCH AS PRECIPITATION OR FOG.

+ - STATION NOT QUALITY CONTROLLED BY THE NATIONAL WEATHER SERVICE.
    USE DATA WITH CAUTION...ESPECIALLY DEWPOINT AND RELATIVE
    HUMIDITY OBSERVATIONS.

INZ001>003-010>013-019-020-241800-
NORTHWEST INDIANA

CITY           SKY/WX    TMP DP  RH WIND       PRES   REMARKS
GARY /AIRPORT/ SUNNY     88  59  37 SE7       30.10F
KNOX *+        SUNNY     86  59  39 S8        30.10S
LA PORTE +     SUNNY     86  59  39 S5        30.12S
MICHIGAN CITY+ SUNNY     86  59  39 S8        30.10F
MONTICELLO +   SUNNY     85  61  43 S3        30.09F
RENSSELAER +   SUNNY     86  50  28 SE6       30.10F
VALPARAISO     SUNNY     89  61  38 SE9       30.10F

$$

LMZ046-743>745-241800-
SOUTHERN LAKE MICHIGAN

STATION/POSITION TIME  TEMP    WIND        PRES    WAVE
                       AIR SEA DIR/SP/G            HT
                 (UTC) (F)     (DEG/KT/KT) (MB)    (FT)
BURNS HARBOR     1640   85     170/  5/ 12 1019.3F
MICHIGAN CITY    1640   84     140/  4/  6   N/A
5NW MICH CITY    1700   80 72  150/  2/  2   N/A     0

$$

INZ004-005-014>016-021>024-241800-
NORTH CENTRAL INDIANA

CITY           SKY/WX    TMP DP  RH WIND       PRES   REMARKS
GOSHEN         SUNNY     86  57  37 VRB6      30.12F
LOGANSPORT +   SUNNY     86  57  37 E6        30.11F
PERU/GRISSOM   SUNNY     86  60  40 E9        30.10F
SOUTH BEND     SUNNY     86  60  41 S5        30.12F
WARSAW +       SUNNY     82  61  47 SE5       30.12F

$$

INZ006>009-017-018-025>027-241800-
NORTHEAST INDIANA

CITY           SKY/WX    TMP DP  RH WIND       PRES   REMARKS
AUBURN +       SUNNY     86  55  35 SE3       30.15S
FORT WAYNE     SUNNY     85  59  41 SE7       30.13F
HUNTINGTON +   SUNNY     86  55  34 S8        30.12F
KENDALLVILLE + SUNNY     84  61  45 SE8       30.15S

$$

INZ028-029-035-036-043>045-051>053-241800-
WEST CENTRAL INDIANA

CITY           SKY/WX    TMP DP  RH WIND       PRES   REMARKS
CRAWFORDSVL +  SUNNY     86  61  42 CALM      30.09F
GREENCASTLE +  SUNNY     88  61  40 E5        30.09F
LAFAYETTE      SUNNY     86  65  49 VRB5      30.08F
TERRE HAUTE    SUNNY     88  59  37 CALM      30.07F

$$

INZ030>032-037>040-046>048-054>057-064-065-241800-
CENTRAL INDIANA

CITY           SKY/WX    TMP DP  RH WIND       PRES   REMARKS
CP ATTERBURY + SUNNY     82  61  47 E3        30.11S
COLUMBUS       SUNNY     84  55  37 CALM      30.10F
FISHERS *+     SUNNY     88  64  45 SE6       30.10
FRANKFORT +    CLOUDY    90  60  36 E5        30.11F
GREENWOOD *+   SUNNY     88  63  42 E3        30.11F
INDIANAPOLIS   MOSUNNY   86  59  39 SE8       30.10F
-EAGLE CREEK   SUNNY     87  58  37 VRB5      30.09F
KOKOMO +       SUNNY     85  63  47 S6        30.12F
MT COMFORT *+  SUNNY     86  59  39 CALM      30.11F
SHELBYVILLE    SUNNY     88  57  34 S6        30.09F
ZIONSVILLE +   SUNNY     84  59  42 SE6       30.11F

$$

INZ033-034-041-042-049-050-058-059-241800-
EAST CENTRAL INDIANA

CITY           SKY/WX    TMP DP  RH WIND       PRES   REMARKS
MUNCIE         SUNNY     88  57  34 VRB3      30.11F
RICHMOND +     SUNNY     82  63  51 E6        30.14F

$$

INZ060-061-067>069-081>083-085>088-241800-
SOUTHWEST INDIANA

CITY           SKY/WX    TMP DP  RH WIND       PRES   REMARKS
EVANSVILLE     SUNNY     85  65  51 VRB3      30.06F
HUNTINGBURG +  SUNNY     85  66  53 CALM      30.07F
WASHINGTON +   SUNNY     88  56  33 CALM      30.05F

$$

INZ062-063-066-070>080-084-089>092-241800-
SOUTH CENTRAL AND SOUTHEAST INDIANA

CITY           SKY/WX    TMP DP  RH WIND       PRES   REMARKS
BEDFORD +      SUNNY     86  59  39 S5        30.08F
BLOOMINGTON    SUNNY     87  59  38 VRB6      30.09F
MADISON *+     SUNNY     86  61  42 SE6       30.11F
NORTH VERNON + SUNNY     84  63  48 NE3       30.10F
SEYMOUR +      SUNNY     86  64  48 CALM      30.08F

$$





USA.gov is the U.S. government's official web portal to all federal, state and local government web resources and services.